EJU3EL EDDH-LIMC

Flight info

Callsign EJU3EL
Flight time 1h 25m
Altitude 35000
Route AMLUH2G/33 AMLUH M852 DENIX DCT ZUCKA DCT EXITI DCT BERAS/N0458F340 DCT OLPIX/N0455F350 DCT EKPEB DCT RENTA DCT ATPED DCT LUSIL/N0403F190 M984 EVRIP
Aircraft A320/M-SDE3FGHIRWY/LB1

Departure

Time 2026-04-30 19:56
Airport Hamburg Helmut Schmidt Airport (EDDH)

Arrival

Time 2026-04-30 21:22
Airport Milan Malpensa International Airport (LIMC)
Time Latitude Longitude Altitude Speed Heading
2026-04-30 19:11 53.62845 10.00218 49 ft 0 kts 62°
2026-04-30 19:12 53.62843 10.00214 49 ft 0 kts 62°
2026-04-30 19:44 53.62836 10.00191 46 ft 4 kts 60°
2026-04-30 19:44 53.62822 10.00154 45 ft 4 kts 50°
2026-04-30 19:44 53.62804 10.00125 46 ft 4 kts 21°
2026-04-30 19:45 53.62786 10.00122 44 ft 0 kts 333°
2026-04-30 19:47 53.62793 10.00117 47 ft 5 kts 333°
2026-04-30 19:47 53.62816 10.00097 46 ft 6 kts 333°
2026-04-30 19:47 53.62856 10.00062 48 ft 4 kts 333°
2026-04-30 19:47 53.62882 10.00045 48 ft 5 kts 348°
2026-04-30 19:48 53.62917 10.00019 48 ft 5 kts 308°
2026-04-30 19:48 53.62916 9.99984 48 ft 0 kts 245°
2026-04-30 19:48 53.62915 9.99981 48 ft 2 kts 245°
2026-04-30 19:48 53.62901 9.99929 47 ft 6 kts 245°
2026-04-30 19:49 53.62892 9.99900 47 ft 0 kts 244°
2026-04-30 19:51 53.62883 9.99868 47 ft 8 kts 244°
2026-04-30 19:51 53.62857 9.99764 45 ft 9 kts 265°
2026-04-30 19:51 53.62883 9.99730 45 ft 0 kts 335°
2026-04-30 19:55 53.62916 9.99704 45 ft 21 kts 334°
2026-04-30 19:55 53.63280 9.99391 46 ft 94 kts 332°
2026-04-30 19:55 53.64041 9.98731 52 ft 149 kts 333°
2026-04-30 19:56 53.65045 9.97835 427 ft 163 kts 334°
2026-04-30 19:56 53.66046 9.96967 1146 ft 162 kts 335°
2026-04-30 19:56 53.67115 9.96068 1550 ft 183 kts 335°
2026-04-30 19:56 53.68323 9.95064 1891 ft 205 kts 339°
2026-04-30 19:57 53.69768 9.94660 2338 ft 216 kts
2026-04-30 19:57 53.71290 9.94699 3052 ft 220 kts
2026-04-30 19:57 53.72733 9.95439 3815 ft 219 kts 39°
2026-04-30 19:57 53.73613 9.97470 4595 ft 216 kts 74°
2026-04-30 19:58 53.73940 9.99935 5443 ft 215 kts 79°
2026-04-30 19:58 53.74123 10.02432 6241 ft 215 kts 93°
2026-04-30 19:58 53.73782 10.04905 6913 ft 225 kts 112°
2026-04-30 19:58 53.72991 10.07347 7252 ft 249 kts 118°
2026-04-30 19:59 53.72105 10.09970 7834 ft 262 kts 118°
2026-04-30 19:59 53.71203 10.12643 8610 ft 268 kts 117°
2026-04-30 19:59 53.69244 10.18107 10268 ft 278 kts 128°
2026-04-30 20:00 53.67783 10.20314 10992 ft 288 kts 143°
2026-04-30 20:00 53.65892 10.21811 11268 ft 316 kts 160°
2026-04-30 20:00 53.63678 10.22824 11476 ft 341 kts 162°
2026-04-30 20:00 53.61318 10.23887 11675 ft 361 kts 162°
2026-04-30 20:01 53.56353 10.26121 12891 ft 374 kts 162°
2026-04-30 20:01 53.53821 10.27266 13599 ft 378 kts 161°
2026-04-30 20:01 53.51266 10.28430 14274 ft 382 kts 161°
2026-04-30 20:02 53.46086 10.30797 15441 ft 390 kts 161°
2026-04-30 20:02 53.43452 10.32003 15999 ft 394 kts 161°
2026-04-30 20:03 53.38102 10.34438 17060 ft 403 kts 161°
2026-04-30 20:03 53.35375 10.35659 17557 ft 408 kts 161°
2026-04-30 20:03 53.32611 10.36888 18082 ft 412 kts 162°
2026-04-30 20:03 53.29826 10.38126 18623 ft 416 kts 162°
2026-04-30 20:04 53.27016 10.39377 19113 ft 419 kts 161°
2026-04-30 20:04 53.24188 10.40636 19580 ft 422 kts 161°
2026-04-30 20:04 53.21341 10.41910 20035 ft 425 kts 161°
2026-04-30 20:05 53.15618 10.44481 20924 ft 432 kts 161°
2026-04-30 20:05 53.12666 10.45792 21369 ft 435 kts 162°
2026-04-30 20:05 53.06722 10.47903 22214 ft 443 kts 166°
2026-04-30 20:06 53.03666 10.48787 22634 ft 447 kts 167°
2026-04-30 20:06 53.00589 10.49635 23036 ft 450 kts 167°
2026-04-30 20:06 52.97493 10.50500 23433 ft 453 kts 167°
2026-04-30 20:06 52.94376 10.51409 23824 ft 456 kts 167°
2026-04-30 20:07 52.91249 10.52362 24181 ft 458 kts 166°
2026-04-30 20:07 52.89171 10.53007 24347 ft 460 kts 166°
2026-04-30 20:07 52.82860 10.54990 24949 ft 464 kts 166°
2026-04-30 20:08 52.79683 10.55984 25290 ft 466 kts 167°
2026-04-30 20:08 52.76486 10.56974 25626 ft 468 kts 167°
2026-04-30 20:08 52.73280 10.57961 25951 ft 470 kts 167°
2026-04-30 20:08 52.70060 10.58949 26257 ft 472 kts 167°
2026-04-30 20:09 52.66818 10.59942 26538 ft 475 kts 167°
2026-04-30 20:09 52.63560 10.60936 26808 ft 477 kts 167°
2026-04-30 20:09 52.56997 10.62937 27394 ft 481 kts 167°
2026-04-30 20:10 52.50378 10.64947 27960 ft 485 kts 167°
2026-04-30 20:10 52.47054 10.65950 28278 ft 486 kts 167°
2026-04-30 20:10 52.43727 10.66951 28689 ft 485 kts 167°
2026-04-30 20:11 52.37101 10.68954 29502 ft 483 kts 167°
2026-04-30 20:11 52.33838 10.69941 29906 ft 482 kts 167°
2026-04-30 20:11 52.30543 10.70935 30317 ft 481 kts 167°
2026-04-30 20:12 52.23959 10.72914 31051 ft 479 kts 167°
2026-04-30 20:12 52.20687 10.73898 31408 ft 478 kts 167°
2026-04-30 20:12 52.17417 10.74881 31766 ft 477 kts 167°
2026-04-30 20:13 52.14159 10.75854 32112 ft 476 kts 168°
2026-04-30 20:13 52.10909 10.76819 32467 ft 474 kts 168°
2026-04-30 20:13 52.07665 10.77779 32822 ft 473 kts 168°
2026-04-30 20:13 52.04424 10.78741 33152 ft 472 kts 168°
2026-04-30 20:14 52.01195 10.79702 33523 ft 471 kts 167°
2026-04-30 20:14 51.97970 10.80662 33874 ft 471 kts 167°
2026-04-30 20:14 51.94752 10.81616 34215 ft 470 kts 167°
2026-04-30 20:14 51.91533 10.82567 34515 ft 470 kts 167°
2026-04-30 20:15 51.88315 10.83516 34803 ft 470 kts 167°
2026-04-30 20:15 51.85090 10.84466 35085 ft 469 kts 167°
2026-04-30 20:15 51.81879 10.85412 35351 ft 469 kts 167°
2026-04-30 20:16 51.75435 10.87311 35455 ft 472 kts 167°
2026-04-30 20:16 51.68963 10.89202 35449 ft 473 kts 167°
2026-04-30 20:17 51.62516 10.90990 35447 ft 473 kts 168°
2026-04-30 20:17 51.56007 10.92592 35446 ft 473 kts 169°
2026-04-30 20:18 51.49494 10.94163 35446 ft 474 kts 168°
2026-04-30 20:18 51.42980 10.95788 35441 ft 474 kts 168°
2026-04-30 20:19 51.36471 10.97433 35443 ft 474 kts 168°
2026-04-30 20:19 51.29956 10.99060 35444 ft 474 kts 168°
2026-04-30 20:20 51.23437 11.00680 35438 ft 474 kts 168°
2026-04-30 20:20 51.16906 11.02299 35433 ft 475 kts 168°
2026-04-30 20:21 51.10366 11.03903 35424 ft 476 kts 168°
2026-04-30 20:21 51.03808 11.05520 35422 ft 477 kts 168°
2026-04-30 20:22 50.97250 11.07139 35406 ft 477 kts 168°
2026-04-30 20:22 50.90685 11.08748 35419 ft 478 kts 168°
2026-04-30 20:23 50.84103 11.10355 35424 ft 478 kts 168°
2026-04-30 20:23 50.77564 11.11950 35432 ft 479 kts 167°
2026-04-30 20:24 50.70976 11.13550 35429 ft 479 kts 168°
2026-04-30 20:24 50.64381 11.15137 35430 ft 479 kts 168°
2026-04-30 20:25 50.54487 11.17525 35430 ft 480 kts 168°
2026-04-30 20:26 50.44588 11.19917 35439 ft 480 kts 167°
2026-04-30 20:26 50.34658 11.22302 35420 ft 481 kts 167°
2026-04-30 20:27 50.21385 11.25447 35408 ft 483 kts 167°
2026-04-30 20:28 50.08134 11.28580 35418 ft 483 kts 167°
2026-04-30 20:30 49.91521 11.32520 35416 ft 483 kts 167°
2026-04-30 20:31 49.71554 11.37177 35426 ft 484 kts 167°
2026-04-30 20:32 49.54883 11.41016 35412 ft 486 kts 167°
2026-04-30 20:33 49.44830 11.42778 35402 ft 488 kts 169°
2026-04-30 20:34 49.34703 11.44366 35402 ft 488 kts 169°
2026-04-30 20:35 49.24586 11.46105 35406 ft 488 kts 168°
2026-04-30 20:35 49.14461 11.47856 35402 ft 488 kts 169°
2026-04-30 20:36 49.07709 11.48992 35397 ft 488 kts 169°
2026-04-30 20:37 48.97636 11.50672 35429 ft 488 kts 168°
2026-04-30 20:37 48.90872 11.51796 35396 ft 489 kts 168°
2026-04-30 20:38 48.84103 11.52926 35382 ft 489 kts 168°
2026-04-30 20:38 48.77330 11.54061 35380 ft 490 kts 168°
2026-04-30 20:39 48.67171 11.55760 35382 ft 490 kts 168°
2026-04-30 20:40 48.56988 11.57433 35379 ft 491 kts 168°
2026-04-30 20:40 48.50192 11.58544 35381 ft 491 kts 168°
2026-04-30 20:41 48.40003 11.60231 35382 ft 491 kts 168°
2026-04-30 20:41 48.33202 11.61346 35383 ft 492 kts 168°
2026-04-30 20:42 48.26442 11.62447 35383 ft 492 kts 168°
2026-04-30 20:43 48.16226 11.64108 35389 ft 493 kts 168°
2026-04-30 20:43 48.09399 11.65214 35365 ft 493 kts 168°
2026-04-30 20:44 47.99150 11.66876 35365 ft 494 kts 168°
2026-04-30 20:45 47.85448 11.69074 35366 ft 495 kts 168°
2026-04-30 20:45 47.78594 11.70176 35368 ft 495 kts 168°
2026-04-30 20:46 47.64923 11.72365 35368 ft 496 kts 168°
2026-04-30 20:47 47.54633 11.73999 35366 ft 496 kts 168°
2026-04-30 20:48 47.44325 11.75623 35365 ft 496 kts 168°
2026-04-30 20:48 47.37454 11.76616 35356 ft 499 kts 173°
2026-04-30 20:49 47.30481 11.75694 35333 ft 507 kts 185°
2026-04-30 20:50 47.20031 11.73245 35323 ft 507 kts 185°
2026-04-30 20:50 47.13052 11.71639 35313 ft 507 kts 185°
2026-04-30 20:51 47.06078 11.70038 35295 ft 507 kts 186°
2026-04-30 20:51 46.99244 11.67349 35287 ft 512 kts 202°
2026-04-30 20:51 46.96050 11.65212 35283 ft 512 kts 204°
2026-04-30 20:52 46.89578 11.60863 35290 ft 512 kts 204°
2026-04-30 20:53 46.79873 11.54400 35282 ft 511 kts 204°
2026-04-30 20:53 46.73402 11.50092 35288 ft 511 kts 206°
2026-04-30 20:54 46.67612 11.44243 35287 ft 506 kts 230°
2026-04-30 20:54 46.65489 11.40201 35240 ft 501 kts 239°
2026-04-30 20:55 46.59774 11.27453 35258 ft 502 kts 240°
2026-04-30 20:55 46.55973 11.18962 35290 ft 501 kts 240°
2026-04-30 20:56 46.50264 11.06240 35305 ft 501 kts 240°
2026-04-30 20:57 46.45184 10.94986 35296 ft 500 kts 240°
2026-04-30 20:57 46.41362 10.86567 35293 ft 499 kts 240°
2026-04-30 20:58 46.35631 10.74004 35320 ft 497 kts 240°
2026-04-30 20:58 46.31825 10.65666 34978 ft 496 kts 240°
2026-04-30 20:59 46.28014 10.57325 34495 ft 498 kts 240°
2026-04-30 20:59 46.26099 10.53146 34256 ft 500 kts 240°
2026-04-30 21:00 46.22247 10.44764 33715 ft 502 kts 239°
2026-04-30 21:00 46.18388 10.36417 33115 ft 503 kts 239°
2026-04-30 21:01 46.14491 10.28011 32552 ft 505 kts 238°
2026-04-30 21:01 46.12530 10.23776 31343 ft 511 kts 238°
2026-04-30 21:01 46.08587 10.15275 28783 ft 505 kts 238°
2026-04-30 21:02 46.06644 10.11107 27587 ft 497 kts 238°
2026-04-30 21:02 46.04726 10.06999 26243 ft 494 kts 238°
2026-04-30 21:02 46.02809 10.02898 25219 ft 493 kts 238°
2026-04-30 21:02 46.00912 9.98849 24432 ft 484 kts 238°
2026-04-30 21:03 45.99043 9.94863 23487 ft 478 kts 238°
2026-04-30 21:03 45.97195 9.90922 22530 ft 471 kts 238°
2026-04-30 21:03 45.95376 9.87057 21702 ft 463 kts 238°
2026-04-30 21:03 45.93579 9.83245 20858 ft 458 kts 238°
2026-04-30 21:04 45.91805 9.79477 20037 ft 453 kts 238°
2026-04-30 21:04 45.90049 9.75745 19207 ft 448 kts 238°
2026-04-30 21:04 45.86593 9.68410 17518 ft 439 kts 237°
2026-04-30 21:05 45.84906 9.64851 16766 ft 433 kts 237°
2026-04-30 21:05 45.83222 9.61310 16073 ft 427 kts 237°
2026-04-30 21:05 45.81556 9.57814 15376 ft 421 kts 237°
2026-04-30 21:05 45.79916 9.54372 14701 ft 415 kts 237°
2026-04-30 21:06 45.78299 9.50975 14053 ft 410 kts 237°
2026-04-30 21:06 45.76708 9.47626 13328 ft 403 kts 237°
2026-04-30 21:06 45.75141 9.44334 12609 ft 396 kts 237°
2026-04-30 21:06 45.73601 9.41107 11967 ft 388 kts 237°
2026-04-30 21:07 45.72115 9.38006 11804 ft 367 kts 237°
2026-04-30 21:07 45.70703 9.35066 11692 ft 348 kts 237°
2026-04-30 21:07 45.69369 9.32291 11571 ft 331 kts 237°
2026-04-30 21:07 45.68095 9.29637 11449 ft 316 kts 237°
2026-04-30 21:08 45.66878 9.27100 11236 ft 305 kts 237°
2026-04-30 21:08 45.65699 9.24645 10880 ft 301 kts 237°
2026-04-30 21:08 45.64521 9.22195 10496 ft 297 kts 237°
2026-04-30 21:08 45.63353 9.19775 10090 ft 294 kts 237°
2026-04-30 21:09 45.62199 9.17378 9644 ft 292 kts 237°
2026-04-30 21:09 45.61057 9.15003 9201 ft 289 kts 236°
2026-04-30 21:09 45.59923 9.12648 8747 ft 287 kts 236°
2026-04-30 21:09 45.58789 9.10302 8316 ft 287 kts 236°
2026-04-30 21:10 45.57659 9.07967 7942 ft 285 kts 236°
2026-04-30 21:10 45.56539 9.05651 7565 ft 283 kts 236°
2026-04-30 21:10 45.55427 9.03353 7206 ft 281 kts 236°
2026-04-30 21:10 45.54323 9.01069 6885 ft 276 kts 236°
2026-04-30 21:11 45.53252 8.98861 6762 ft 264 kts 236°
2026-04-30 21:11 45.52230 8.96760 6630 ft 252 kts 236°
2026-04-30 21:11 45.51250 8.94747 6370 ft 243 kts 236°
2026-04-30 21:11 45.50290 8.92774 5969 ft 241 kts 236°
2026-04-30 21:12 45.49339 8.90820 5548 ft 239 kts 236°
2026-04-30 21:12 45.48394 8.88878 5112 ft 237 kts 235°
2026-04-30 21:12 45.47462 8.86961 4657 ft 235 kts 235°
2026-04-30 21:12 45.46517 8.85067 4195 ft 233 kts 228°
2026-04-30 21:13 45.45204 8.83796 3739 ft 228 kts 194°
2026-04-30 21:13 45.43643 8.83650 3309 ft 226 kts 172°
2026-04-30 21:13 45.42089 8.84000 3094 ft 226 kts 168°
2026-04-30 21:13 45.40539 8.84413 3044 ft 227 kts 167°
2026-04-30 21:14 45.38992 8.84852 3044 ft 223 kts 166°
2026-04-30 21:14 45.37516 8.85265 3044 ft 209 kts 167°
2026-04-30 21:14 45.36125 8.85627 3046 ft 200 kts 171°
2026-04-30 21:14 45.34780 8.85268 3047 ft 201 kts 209°
2026-04-30 21:15 45.33864 8.83802 3049 ft 203 kts 251°
2026-04-30 21:15 45.33910 8.81850 3056 ft 202 kts 298°
2026-04-30 21:15 45.34900 8.80571 3061 ft 197 kts 346°
2026-04-30 21:15 45.36243 8.80533 3081 ft 195 kts
2026-04-30 21:16 45.37598 8.80393 3068 ft 197 kts 350°
2026-04-30 21:16 45.38943 8.79988 3062 ft 198 kts 351°
2026-04-30 21:16 45.40294 8.79604 3060 ft 198 kts 351°
2026-04-30 21:16 45.41640 8.79232 3058 ft 197 kts 351°
2026-04-30 21:17 45.42986 8.78863 3056 ft 197 kts 352°
2026-04-30 21:17 45.44339 8.78492 3026 ft 200 kts 351°
2026-04-30 21:17 45.45706 8.78117 3033 ft 200 kts 351°
2026-04-30 21:17 45.47075 8.77741 3037 ft 200 kts 351°
2026-04-30 21:18 45.48445 8.77365 3039 ft 201 kts 351°
2026-04-30 21:18 45.49798 8.76992 3018 ft 193 kts 351°
2026-04-30 21:18 45.51079 8.76640 2811 ft 182 kts 351°
2026-04-30 21:18 45.52270 8.76311 2616 ft 165 kts 351°
2026-04-30 21:19 45.53357 8.76012 2380 ft 154 kts 352°
2026-04-30 21:19 45.54391 8.75728 2177 ft 150 kts 352°
2026-04-30 21:19 45.55408 8.75449 1981 ft 148 kts 352°
2026-04-30 21:19 45.56414 8.75172 1782 ft 146 kts 352°
2026-04-30 21:20 45.57391 8.74903 1562 ft 144 kts 351°
2026-04-30 21:20 45.58368 8.74637 1389 ft 142 kts 350°
2026-04-30 21:20 45.59330 8.74370 1215 ft 141 kts 349°
2026-04-30 21:20 45.60279 8.74109 1021 ft 138 kts 348°
2026-04-30 21:21 45.61220 8.73842 866 ft 138 kts 349°
2026-04-30 21:21 45.62140 8.73579 745 ft 127 kts 349°
2026-04-30 21:21 45.63342 8.73262 738 ft 54 kts 349°
2026-04-30 21:22 45.63579 8.73185 740 ft 21 kts 340°
2026-04-30 21:22 45.63875 8.72789 740 ft 21 kts 304°
2026-04-30 21:23 45.63928 8.72671 741 ft 11 kts 303°
2026-04-30 21:23 45.63969 8.72587 741 ft 10 kts 310°
2026-04-30 21:23 45.64117 8.72511 741 ft 17 kts 351°
2026-04-30 21:24 45.64242 8.72476 741 ft 19 kts 349°
2026-04-30 21:24 45.64373 8.72439 739 ft 15 kts 349°
2026-04-30 21:24 45.64436 8.72401 740 ft 8 kts 303°
2026-04-30 21:24 45.64476 8.72366 740 ft 6 kts 350°
2026-04-30 21:25 45.64520 8.72355 740 ft 0 kts 349°